Regional Weather Roundup
Issued by NWS

Home | Current Version | Previous Version | Text Only | Print | Product List | Glossary Off
Versions: 1 2 3 4 5 6 7 8 9 10 11 12 13 14 15 16 17 18 19 20 21 22 23 24 25 26 27 28 29 30 31 32 33 34 35 36 37 38 39 40 41 42 43 44 45 46 47 48 49 50

764
ASUS43 KMKX 260921
RWRWI

WISCONSIN REGIONAL WEATHER ROUNDUP
NATIONAL WEATHER SERVICE MILWAUKEE/SULLIVAN WI
400 AM CDT WED APR 26 2017

NOTE: "FAIR" INDICATES FEW OR NO CLOUDS BELOW 12,000 FEET WITH NO
SIGNIFICANT WEATHER AND/OR OBSTRUCTIONS TO VISIBILITY.

WIZ001-002-006>008-014>016-023>028-261000-
NORTHWEST WISCONSIN

CITY           SKY/WX    TMP DP  RH WIND       PRES   REMARKS
SUPERIOR ARPT  LGT RAIN  33  32  95 NE16G26   29.67F WCI  23
ASHLAND        FRZ RAIN  32  29  88 NE22G32   29.66F WCI  19
HAYWARD        FRZ RAIN  33  30  88 N15G22    29.57F WCI  23
SIREN          LGT RAIN  34  32  94 NE10G18   29.56F WCI  26
CUMBERLAND     RAIN      34  32  93 NE14G20   29.51F WCI  24
RICE LAKE      LGT RAIN  37  36  94 N18       29.51F WCI  27
CHETEK         LGT RAIN  40  38  95 NE9       29.50S WCI  34
LADYSMITH      RAIN      39  37  94 NE9       29.53S WCI  32
EAU CLAIRE     LGT RAIN  46  44  93 NE13G20   29.44F
MENOMONIE      DRIZZLE   44  44 100 N9        29.46F
NEW RICHMOND   LGT RAIN  40  39  97 N13       29.48F WCI  33
OSCEOLA        LGT RAIN  39  39 100 N9G18     29.54S WCI  32
$$

WIZ003>005-009-010-017-018-261000-
NORTH CENTRAL WISCONSIN

CITY           SKY/WX    TMP DP  RH WIND       PRES   REMARKS
MANITOWISH WTR RAIN      34  34 100 NE8       29.55F WCI  27
ARBOR VITAE    LGT RAIN  39  38  94 NE6       29.53F WCI  35
WOODRUFF       LGT RAIN  39  38  94 NE6       29.53F WCI  35
RHINELANDER    LGT RAIN  44  44 100 NE9       29.52F
EAGLE RIVER    LGT RAIN  39  39 100 N3        29.54F
LAND O LAKES   HVY RAIN  38  37  99 NE9       29.57F WCI  31
PHILLIPS       DRIZZLE   36  36 100 NE10      29.52F WCI  28
TOMAHAWK       DRIZZLE   43  42  96 NE6       29.51F
MEDFORD        DRIZZLE   53  52  95 E10       29.46F
MERRILL        CLOUDY    54  54 100 E3        29.48F
$$

WIZ029-030-035-036-043>047-261000-
CENTRAL WISCONSIN

CITY           SKY/WX    TMP DP  RH WIND       PRES   REMARKS
WAUSAU         CLOUDY    54  53  97 E9        29.45F
MOSINEE        DRIZZLE   54  54 100 E9        29.47F
MARSHFIELD     LGT RAIN  56  53  90 E6        29.44F FOG
STEVENS POINT  RAIN      55  55 100 E7        29.47S
WAUPACA        DRIZZLE   58  56  91 E8        29.47F
WAUTOMA        NOT AVBL
WISC RAPIDS    LGT RAIN  58  56  93 E5        29.45F
CAMP DOUGLAS   CLOUDY    55  54  98 CALM      29.41F
$$

WIZ011>013-019>022-031-037>040-048>050-261000-
NORTHEAST WISCONSIN

CITY           SKY/WX    TMP DP  RH WIND       PRES   REMARKS
ANTIGO         CLOUDY    50  50  99 E16       29.49F
SHAWANO        DRIZZLE   53  50  90 NE7       29.51F
OCONTO         CLOUDY    47  46  95 NE6       29.52F
STURGEON BAY   CLOUDY    52  49  89 MISG      29.52F
GREEN BAY      MOCLDY    53  53 100 NE6       29.49F
MANITOWOC      CLOUDY    54  49  83 S12       29.51F
APPLETON       LGT RAIN  55  52  88 E5        29.46F
CLINTONVILLE   LGT RAIN  52  52 100 NE6       29.48F
OSHKOSH        CLOUDY    59  53  80 SE9       29.45F
$$

WIZ032>034-041-042-053>061-261000-
SOUTHWEST WISCONSIN

CITY           SKY/WX    TMP DP  RH WIND       PRES   REMARKS
LA CROSSE      CLOUDY    57  55  93 CALM      29.40S
SPARTA         LGT RAIN  53  53 100 CALM      29.42S
VIROQUA        CLOUDY    55  54  99 E3        29.40F
BOSCOBEL       CLOUDY    58  56  93 N5        29.39F
PRAIRIE DU CHI CLOUDY    56  55  97 CALM      29.38F FOG
PLATTEVILLE    CLOUDY    60  57  91 SE6       29.40F
$$

WIZ056-057-062-063-064-067-068-261000-
SOUTH CENTRAL WISCONSIN

CITY           SKY/WX    TMP DP  RH WIND       PRES   REMARKS
REEDSBURG      CLOUDY    60  53  77 CALM      29.41F
BARABOO/DELLS  CLOUDY    60  51  73 SE6       29.42F
LONE ROCK      CLOUDY    59  54  83 CALM      29.40F
MINERAL POINT  LGT RAIN  61  55  82 E3        29.40F
MADISON        CLOUDY    60  55  83 CALM      29.42F
MIDDLETON      CLOUDY    61  55  81 E3        29.43F
WATERTOWN      CLOUDY    61  54  78 SE6       29.44F
MONROE         CLOUDY    61  52  72 SE7       29.41F
JANESVILLE     CLOUDY    66  52  59 S6        29.43F
$$

WIZ051-052-058>065-066-070>072-261000-
SOUTHEAST WISCONSIN

CITY           SKY/WX    TMP DP  RH WIND       PRES   REMARKS
MILWAUKEE      CLOUDY    59  52  77 SE9       29.48F
WAUKESHA       CLOUDY    59  50  72 E7        29.48F
MILWAUKEE/TIMM CLOUDY    57  48  72 CALM      29.49S
RACINE         PTCLDY    56  49  77 S10       29.50F
KENOSHA        PTCLDY    59  52  77 SE8       29.48F
FOND DU LAC    MOCLDY    60  51  72 SE10      29.45F
SHEBOYGAN      PTCLDY    55  50  83 S9        29.50F
WEST BEND      CLOUDY    55  52  88 SE3       29.48S
JUNEAU         CLOUDY    60  53  77 SE8       29.46F
$$

LSZ147-162-261000-
LAKE SUPERIOR

STATION/POSITION TIME  TEMP    WIND        PRES    WAVE
                       AIR SEA DIR/SP/G            HT/PER
                 (UTC) (F)     (DEG/KT/KT) (MB)    (FT/S)
DEVILS ISLAND    0900   31      50/  5/  6 1006.5F
SAXON HARBOR     0900   35      50/ 26     1003.7
$$

LMZ867-665-643>646-261000-
LAKE MICHIGAN

STATION/POSITION TIME  TEMP    WIND        PRES    WAVE
                       AIR SEA DIR/SP/G            HT/PER
                 (UTC) (F)     (DEG/KT/KT) (MB)    (FT/S)
CHAMBERS ISLAND  0840   40      10/  8/ 10 1000.3F
N MID LAKE BUOY  0850   42 37   90/ 12/ 14 1001.8F   2/ 4
NORTHPORT PIER   0840   44      70/  5/  7 1001.0F
KEWAUNEE LAKESHO 0854   53     160/ 11/ 19  999.2F
SHEBOYGAN LAKESH 0900   49     170/ 11/ 11  999.0F
PORT WASHINGTON  0830   51     160/  5/  7 1000.0F
MILWAUKEE LAKESH 0900   50     140/  7/  8   N/A
S MID LAKE BUOY  0850   48 41  120/ 12/ 12 1000.2R   1/ 3
KENOSHA   LAKESH 0900   52     170/ 12/ 14  999.0
$$

TC  - TEMPERATURE IN CELSIUS
VSB - VISIBILITY IN STATUTE MILES
WCI - WIND CHILL INDEX
HX  - HEAT INDEX





USA.gov is the U.S. government's official web portal to all federal, state and local government web resources and services.